Weather past 2 weeks in Port-aux-Francais, French Southern Territories

Now
35 °F

Chilly.


Feels Like: 29 °F
Forecast: 35 / 40 °F
Wind: 8 mph from North

Location: Port-Aux-Francais Iles Kerguelen

Current Time: Jul 1, 2015 at 12:46:05 PM

Latest Report: Jul 1, 2015 at 12:00 PM


Visibility: N/A

Pressure: 29.58 "Hg

Humidity: 66%

Dew point: 25 °F

Location of Port-aux-FrancaisLocation

Historic Weather in Port-aux-Francais — Graph

°F

Port-aux-Francais temperature yesterday

Maximum temperature yesterday: 40 °F (at 4:00 AM)
Minimum temperature yesterday: 30 °F (at 7:00 PM)
Average temperature yesterday: 34 °F

Past Weeks' High & Low Weather Summary

 TemperatureHumidityPressure
High51 °F (Jun 18, 11:00 AM)94% (Jun 20, 11:00 AM)30.23 "Hg (Jun 20, 11:00 AM)
Low29 °F (Jun 23, 10:00 PM)50% (Jun 16, 11:00 AM)28.58 "Hg (Jun 22, 4:00 AM)
Average35 °F77%29.39 "Hg
* Reported Jun 16 11:00 AM — Jul 1 11:00 AM, Port-aux-Francais, Weather by CustomWeather, © 2015

Note: Actual official high and low records may vary slightly from our data, if they occured in-between our weather recording intervals... More about our weather records

Advertising

Port-aux-Francais weather history for previous 24 hours

 ConditionsComfort  
Time TempWeatherWind HumidityBarometerVisibility
11:00 AM
Wed, Jul 1
33 °FChilly.10 mph70%29.59 "HgN/A
10:00 AM33 °FChilly.12 mph68%29.59 "HgN/A
9:00 AM32 °FChilly.16 mph72%29.58 "HgN/A
7:00 AM32 °FChilly.12 mph75%29.54 "HgN/A
6:00 AM33 °FChilly.22 mph72%29.47 "HgN/A
5:00 AM31 °FChilly.18 mph78%29.47 "HgN/A
4:00 AM31 °FChilly.18 mph84%29.44 "HgN/A
3:00 AM31 °FChilly.21 mph85%29.41 "HgN/A
2:00 AM31 °FChilly.25 mph83%29.35 "HgN/A
1:00 AM31 °FChilly.33 mph91%29.29 "HgN/A
12:00 AM29 °FChilly.33 mph90%29.23 "HgN/A
11:00 PM
Tue, Jun 30
32 °FChilly.17 mph76%29.18 "HgN/A
9:00 PM32 °FChilly.26 mph78%29.15 "HgN/A
7:00 PM30 °FChilly.20 mph89%29.12 "HgN/A
6:00 PM32 °FChilly.10 mph79%29.12 "HgN/A
5:00 PM33 °FChilly.8 mph68%29.15 "HgN/A
4:00 PM33 °FChilly.17 mph69%29.15 "HgN/A
3:00 PM33 °FChilly.22 mph70%29.15 "HgN/A
2:00 PM33 °FChilly.32 mph76%29.12 "HgN/A
1:00 PM33 °FChilly.30 mph85%29.09 "HgN/A
12:00 PM31 °FChilly.23 mph94%29.06 "HgN/A
Weather by CustomWeather, © 2015

See weather overviewHow to use our weather pages